Preston, Minnesota, United States (55965)
Lat: 43.67N, Lon: 92.08W
Wx Zone: MNZ095
Local Info
Past Weather Observations for Today

NOTE: This archive is for the closest National Weather Service station to Preston. Information may differ from the station used for current weather conditions.

Click here for Long-term Archive

Time Weather Temperature Dewpoint Humidity Pressure Winds Precip Visibility
12:53
Overcast
Heavy Rain
59°F / 15°C 55°F / 13°C 88% 30.06 in
(1018 mb)
Calm 0.21 in
(5.33 mm)
2SM
12:33
Overcast
Rain
59°F / 15°C 55°F / 13°C 88% 30.04 in
(1017 mb)
ESE 6.9 mph
(ESE 11 kph)
0.10 in
(2.54 mm)
3SM
12:12
Overcast
Thunder Storms
59°F / 15°C 55°F / 13°C 88% 30.04 in
(1017 mb)
SE 10.4 mph
(SE 17 kph)
0.03 in
(0.76 mm)
4SM
11:52
Overcast
Rain
59°F / 15°C 55°F / 13°C 88% 30.04 in
(1017 mb)
SE 8.1 mph
(SE 13 kph)
0.05 in
(1.27 mm)
5SM
11:33
Overcast
Light Rain
61°F / 16°C 55°F / 13°C 83% 30.04 in
(1017 mb)
SE 11.5 mph
(SE 19 kph)
- 7SM
11:12
Overcast
Light Rain
61°F / 16°C 57°F / 14°C 88% 30.06 in
(1018 mb)
SE 8.1 mph
(SE 13 kph)
- 7SM
10:53
Overcast
Light Rain
61°F / 16°C 57°F / 14°C 88% 30.06 in
(1018 mb)
ESE 9.2 mph
(ESE 15 kph)
0.02 in
(0.51 mm)
7SM
10:33
Overcast
Light Rain
61°F / 16°C 59°F / 15°C 94% 30.06 in
(1018 mb)
ESE 9.2 mph
(ESE 15 kph)
0.02 in
(0.51 mm)
7SM
10:12
Overcast
Light Rain
61°F / 16°C 59°F / 15°C 94% 30.09 in
(1019 mb)
SE 8.1 mph
(SE 13 kph)
0.01 in
(0.25 mm)
7SM
09:52
Overcast
Light Rain
61°F / 16°C 59°F / 15°C 94% 30.09 in
(1019 mb)
SE 6.9 mph
(SE 11 kph)
0.09 in
(2.29 mm)
5SM
09:33
Overcast
Light Rain
61°F / 16°C 59°F / 15°C 94% 30.06 in
(1018 mb)
E 4.6 mph
(E 7 kph)
0.08 in
(2.03 mm)
3SM
09:12
Overcast
Rain
61°F / 16°C 59°F / 15°C 94% 30.09 in
(1019 mb)
SSE 4.6 mph
(SSE 7 kph)
0.05 in
(1.27 mm)
2 1/2SM
08:52
Overcast
Rain
61°F / 16°C 59°F / 15°C 94% 30.09 in
(1019 mb)
SSE 5.8 mph
(SSE 9 kph)
0.11 in
(2.79 mm)
3SM
08:33
Overcast
Rain
61°F / 16°C 59°F / 15°C 94% 30.09 in
(1019 mb)
S 4.6 mph
(S 7 kph)
0.06 in
(1.52 mm)
2 1/2SM
08:12
Overcast
Rain
61°F / 16°C 59°F / 15°C 94% 30.09 in
(1019 mb)
SSE 5.8 mph
(SSE 9 kph)
0.01 in
(0.25 mm)
3SM
07:52
Overcast
Light Rain
61°F / 16°C 59°F / 15°C 94% 30.09 in
(1019 mb)
SW 6.9 mph
(SW 11 kph)
0.07 in
(1.78 mm)
5SM
07:33
Overcast
Light Rain
61°F / 16°C 59°F / 15°C 94% 30.09 in
(1019 mb)
SW 9.2 mph
(SW 15 kph)
0.05 in
(1.27 mm)
4SM
07:12
Overcast
Light Rain
61°F / 16°C 59°F / 15°C 94% 30.09 in
(1019 mb)
SW 9.2 mph
(SW 15 kph)
0.02 in
(0.51 mm)
5SM
06:52
Overcast
Light Rain
61°F / 16°C 59°F / 15°C 94% 30.09 in
(1019 mb)
SSE 8.1 mph
(SSE 13 kph)
0.02 in
(0.51 mm)
5SM
06:32
Overcast
Light Rain
61°F / 16°C 59°F / 15°C 94% 30.06 in
(1018 mb)
SSE 9.2 mph
(SSE 15 kph)
- 7SM
06:12
Mostly Cloudy
61°F / 16°C 59°F / 15°C 94% 30.06 in
(1018 mb)
SSE 9.2 mph
(SSE 15 kph)
- 10SM
05:53
Mostly Cloudy
61°F / 16°C 57°F / 14°C 88% 30.06 in
(1018 mb)
SSE 8.1 mph
(SSE 13 kph)
0.01 in
(0.25 mm)
10SM
05:33
Overcast
Light Rain
61°F / 16°C 57°F / 14°C 88% 30.06 in
(1018 mb)
S 8.1 mph
(S 13 kph)
0.01 in
(0.25 mm)
10SM
05:12
Overcast
61°F / 16°C 57°F / 14°C 88% 30.06 in
(1018 mb)
S 8.1 mph
(S 13 kph)
- 10SM
04:52
Overcast
Light Rain
61°F / 16°C 59°F / 15°C 94% 30.06 in
(1018 mb)
S 10.4 mph
(S 17 kph)
0.01 in
(0.25 mm)
10SM
04:33
Overcast
Light Rain
61°F / 16°C 57°F / 14°C 88% 30.06 in
(1018 mb)
SSE 9.2 mph
(SSE 15 kph)
0.01 in
(0.25 mm)
10SM
04:13
Overcast
Light Rain
61°F / 16°C 57°F / 14°C 88% 30.06 in
(1018 mb)
SW 9.2 mph
(SW 15 kph)
0.01 in
(0.25 mm)
7SM
03:52
Overcast
61°F / 16°C 57°F / 14°C 88% 30.06 in
(1018 mb)
S 8.1 mph
(S 13 kph)
- 10SM
03:32
Overcast
Light Rain
61°F / 16°C 57°F / 14°C 88% 30.06 in
(1018 mb)
S 6.9 mph
(S 11 kph)
- 7SM
03:13
Mostly Cloudy
61°F / 16°C 57°F / 14°C 88% 30.06 in
(1018 mb)
S 6.9 mph
(S 11 kph)
- 10SM
02:52
Mostly Cloudy
61°F / 16°C 57°F / 14°C 88% 30.06 in
(1018 mb)
S 8.1 mph
(S 13 kph)
- 10SM
02:32
Partly Cloudy
61°F / 16°C 57°F / 14°C 88% 30.06 in
(1018 mb)
S 10.4 mph
(S 17 kph)
- 7SM
02:13
Clear
63°F / 17°C 57°F / 14°C 83% 30.06 in
(1018 mb)
SSE 10.4 mph
(SSE 17 kph)
- 10SM
01:52
Clear
63°F / 17°C 57°F / 14°C 83% 30.06 in
(1018 mb)
SSE 10.4 mph
(SSE 17 kph)
- 10SM
01:32
Clear
63°F / 17°C 57°F / 14°C 83% 30.09 in
(1019 mb)
SSE 10.4 mph
(SSE 17 kph)
- 10SM
01:13
Clear
63°F / 17°C 57°F / 14°C 83% 30.09 in
(1019 mb)
SSE 9.2 mph
(SSE 15 kph)
- 10SM
00:53
Clear
63°F / 17°C 57°F / 14°C 83% 30.09 in
(1019 mb)
SW 8.1 mph
(SW 13 kph)
- 10SM
00:32
Clear
61°F / 16°C 57°F / 14°C 88% 30.06 in
(1018 mb)
S 6.9 mph
(S 11 kph)
- 10SM
00:12
Clear
63°F / 17°C 57°F / 14°C 83% 30.06 in
(1018 mb)
SSE 9.2 mph
(SSE 15 kph)
- 10SM
Time Weather Temperature Dewpoint Humidity Pressure Winds Precip Visibility


Weather for websites

WeatherForYou.com, LLC is not responsible for any damages or problems caused by this service. Current weather conditions are obtained from the closest station including government and personal stations which may have varying degrees of accuracy. Weather forecasts are derived from the NOAA NDFD. Like all things, this site belongs to Jesus Christ... He just trusts us to maintain it. If you have any questions or comments email webmaster@weatherforyou.com

Copyright © 2015, WeatherForYou.com LLC. All rights reserved.